Location: Peebles
(55.6412°N, 3.1714°W)
Time: 13:32:14
(UTC+01:00)

ARIANE 5 R/B - Pass Details

Date: 12 July 2022
Orbit: 749 x 794 km, 98.7° (Epoch: 16 August)

Event Time Altitude Azimuth Distance (km) Brightness Sun altitude
Rises 03:22:16 0° 29° (NNE) 3,233 8.4 -8.0°
Reaches altitude 10° 03:26:08 10° 59° (ENE) 2,311 6.1 -7.8°
Maximum altitude 03:28:11 12° 83° (E) 2,154 5.4 -7.6°
Drops below altitude 10° 03:30:14 10° 107° (ESE) 2,315 5.2 -7.5°
Sets 03:34:06 0° 137° (SE) 3,247 5.6 -7.2°
